Time,TemperatureF,DewpointF,PressureIn,WindDirection,WindDirectionDegrees,WindSpeedMPH,WindSpeedGustMPH,Humidity,HourlyPrecipIn,Conditions,Clouds,dailyrainin,SolarRadiationWatts/m^2,SoftwareType,DateUTC
2013-05-11 00:03:00,56.5,40.5,29.93,South,171,1.0,2.0,55,0.00,,,0.00,0.0,meteohub,2013-05-11 05:03:00,
2013-05-11 00:10:00,56.5,38.1,29.93,South,184,1.0,5.0,50,0.00,,,0.00,0.0,meteohub,2013-05-11 05:10:00,
2013-05-11 00:16:00,56.8,38.5,29.93,SSW,198,2.0,6.0,50,0.00,,,0.00,0.0,meteohub,2013-05-11 05:16:00,
2013-05-11 00:22:00,56.8,38.5,29.93,SSW,197,0.0,6.0,50,0.00,,,0.00,0.0,meteohub,2013-05-11 05:22:00,
2013-05-11 00:28:00,56.8,38.8,29.93,SSW,198,0.0,3.0,51,0.00,,,0.00,0.0,meteohub,2013-05-11 05:28:00,
2013-05-11 00:34:00,56.8,38.8,29.94,SSW,202,0.0,3.0,51,0.00,,,0.00,0.0,meteohub,2013-05-11 05:34:00,
2013-05-11 00:40:00,56.7,39.2,29.94,SSW,202,0.0,4.0,52,0.00,,,0.00,0.0,meteohub,2013-05-11 05:40:00,
2013-05-11 00:47:00,56.7,40.3,29.93,WSW,237,0.0,4.0,54,0.00,,,0.00,0.0,meteohub,2013-05-11 05:47:00,
2013-05-11 00:53:00,56.7,40.3,29.93,WSW,240,1.0,4.0,54,0.00,,,0.00,0.0,meteohub,2013-05-11 05:53:00,
2013-05-11 00:59:00,56.7,41.2,29.94,West,275,5.0,7.0,56,0.00,,,0.00,0.0,meteohub,2013-05-11 05:59:00,
2013-05-11 01:05:00,56.7,40.6,29.94,WSW,250,2.0,7.0,55,0.00,,,0.00,0.0,meteohub,2013-05-11 06:05:00,
2013-05-11 01:11:00,56.8,40.5,29.94,West,259,6.0,11.0,54,0.00,,,0.00,0.0,meteohub,2013-05-11 06:11:00,
2013-05-11 01:17:00,57.2,39.7,29.95,NW,317,7.0,9.0,52,0.00,,,0.00,0.0,meteohub,2013-05-11 06:17:00,
2013-05-11 01:22:00,56.7,40.6,29.96,NNW,344,6.0,9.0,55,0.00,,,0.00,0.0,meteohub,2013-05-11 06:22:00,
2013-05-11 01:28:00,54.5,40.8,29.98,NNW,346,8.0,17.0,60,0.00,,,0.00,0.0,meteohub,2013-05-11 06:28:00,
2013-05-11 01:34:00,52.9,39.4,29.99,NNE,16,12.0,20.0,60,0.00,,,0.00,0.0,meteohub,2013-05-11 06:34:00,
2013-05-11 01:40:00,51.6,39.4,29.99,NNW,337,7.0,20.0,63,0.00,,,0.00,0.0,meteohub,2013-05-11 06:40:00,
2013-05-11 01:46:00,51.1,39.7,30.00,North,355,7.0,26.0,65,0.00,,,0.00,0.0,meteohub,2013-05-11 06:46:00,
2013-05-11 01:52:00,50.7,39.4,30.01,North,5,16.0,26.0,65,0.00,,,0.00,0.0,meteohub,2013-05-11 06:52:00,
2013-05-11 01:59:00,50.4,39.0,30.01,NNW,341,7.0,23.0,65,0.00,,,0.00,0.0,meteohub,2013-05-11 06:59:00,
2013-05-11 02:05:00,49.8,38.8,30.02,NW,323,9.0,23.0,66,0.00,,,0.00,0.0,meteohub,2013-05-11 07:05:00,
2013-05-11 02:11:00,49.6,38.7,30.02,North,10,5.0,23.0,66,0.00,,,0.00,0.0,meteohub,2013-05-11 07:11:00,
2013-05-11 02:17:00,49.3,38.5,30.02,NNE,30,6.0,24.0,66,0.00,,,0.00,0.0,meteohub,2013-05-11 07:17:00,
2013-05-11 02:23:00,48.9,37.8,30.02,North,5,6.0,23.0,65,0.00,,,0.00,0.0,meteohub,2013-05-11 07:23:00,
2013-05-11 02:29:00,48.6,36.9,30.02,North,355,7.0,23.0,64,0.00,,,0.00,0.0,meteohub,2013-05-11 07:29:00,
2013-05-11 02:36:00,48.4,36.3,30.03,NNW,340,7.0,20.0,63,0.00,,,0.00,0.0,meteohub,2013-05-11 07:36:00,
2013-05-11 02:42:00,47.8,34.7,30.03,WNW,290,6.0,20.0,60,0.00,,,0.00,0.0,meteohub,2013-05-11 07:42:00,
2013-05-11 02:48:00,47.7,35.2,30.03,NNW,340,8.0,16.0,62,0.00,,,0.00,0.0,meteohub,2013-05-11 07:48:00,
2013-05-11 02:54:00,47.3,34.2,30.04,North,355,6.0,14.0,60,0.00,,,0.00,0.0,meteohub,2013-05-11 07:54:00,
2013-05-11 03:00:00,46.9,32.5,30.04,North,351,9.0,15.0,57,0.00,,,0.00,0.0,meteohub,2013-05-11 08:00:00,
2013-05-11 03:06:00,46.8,32.7,30.05,North,5,8.0,16.0,58,0.00,,,0.00,0.0,meteohub,2013-05-11 08:06:00,
2013-05-11 03:13:00,46.4,32.0,30.05,NNW,346,11.0,16.0,57,0.00,,,0.00,0.0,meteohub,2013-05-11 08:13:00,
2013-05-11 03:19:00,46.0,32.0,30.05,North,0,5.0,19.0,58,0.00,,,0.00,0.0,meteohub,2013-05-11 08:19:00,
2013-05-11 03:25:00,45.9,32.4,30.06,NW,312,5.0,19.0,59,0.00,,,0.00,0.0,meteohub,2013-05-11 08:25:00,
2013-05-11 03:31:00,45.3,31.5,30.06,North,355,3.0,19.0,58,0.00,,,0.00,0.0,meteohub,2013-05-11 08:31:00,
2013-05-11 03:37:00,45.0,31.5,30.07,NNW,348,9.0,20.0,59,0.00,,,0.00,0.0,meteohub,2013-05-11 08:37:00,
2013-05-11 03:43:00,44.6,31.6,30.07,NNW,347,9.0,15.0,60,0.00,,,0.00,0.0,meteohub,2013-05-11 08:43:00,
2013-05-11 03:50:00,44.1,30.7,30.08,NW,310,3.0,15.0,59,0.00,,,0.00,0.0,meteohub,2013-05-11 08:50:00,
2013-05-11 03:56:00,43.5,29.3,30.08,North,355,5.0,15.0,57,0.00,,,0.00,0.0,meteohub,2013-05-11 08:56:00,
2013-05-11 04:02:00,43.2,28.6,30.09,NNE,31,14.0,15.0,56,0.00,,,0.00,0.0,meteohub,2013-05-11 09:02:00,
2013-05-11 04:08:00,42.8,28.2,30.09,NNW,346,3.0,18.0,56,0.00,,,0.00,0.0,meteohub,2013-05-11 09:08:00,
2013-05-11 04:14:00,42.4,28.2,30.09,NNW,342,4.0,18.0,57,0.00,,,0.00,0.0,meteohub,2013-05-11 09:14:00,
2013-05-11 04:20:00,42.3,28.0,30.10,NNW,348,4.0,18.0,57,0.00,,,0.00,0.0,meteohub,2013-05-11 09:20:00,
2013-05-11 04:26:00,42.3,28.6,30.10,NNW,340,3.0,16.0,58,0.00,,,0.00,0.0,meteohub,2013-05-11 09:26:00,
2013-05-11 04:32:00,42.1,28.8,30.10,North,355,10.0,16.0,59,0.00,,,0.00,0.0,meteohub,2013-05-11 09:32:00,
2013-05-11 04:37:00,41.9,28.6,30.11,NNW,348,2.0,12.0,59,0.00,,,0.00,0.0,meteohub,2013-05-11 09:37:00,
2013-05-11 04:43:00,41.7,28.4,30.11,NW,317,4.0,12.0,59,0.00,,,0.00,0.0,meteohub,2013-05-11 09:43:00,
2013-05-11 04:49:00,41.5,28.8,30.11,North,0,2.0,16.0,60,0.00,,,0.00,0.0,meteohub,2013-05-11 09:49:00,
2013-05-11 04:55:00,41.4,28.6,30.11,NNW,342,3.0,16.0,60,0.00,,,0.00,0.0,meteohub,2013-05-11 09:55:00,
2013-05-11 05:02:00,41.5,28.8,30.11,NNW,344,5.0,14.0,60,0.00,,,0.00,0.0,meteohub,2013-05-11 10:02:00,
2013-05-11 05:08:00,41.5,29.1,30.12,NNW,346,4.0,15.0,61,0.00,,,0.00,0.0,meteohub,2013-05-11 10:08:00,
2013-05-11 05:14:00,41.4,28.9,30.12,NNW,338,3.0,15.0,61,0.00,,,0.00,0.0,meteohub,2013-05-11 10:14:00,
2013-05-11 05:20:00,41.0,28.9,30.12,North,355,5.0,12.0,62,0.00,,,0.00,0.0,meteohub,2013-05-11 10:20:00,
2013-05-11 05:26:00,40.8,29.1,30.12,North,350,8.0,12.0,63,0.00,,,0.00,0.0,meteohub,2013-05-11 10:26:00,
2013-05-11 05:32:00,40.8,29.7,30.12,NNW,338,4.0,12.0,64,0.00,,,0.00,0.0,meteohub,2013-05-11 10:32:00,
2013-05-11 05:37:00,41.0,29.3,30.13,North,349,2.0,14.0,63,0.00,,,0.00,0.0,meteohub,2013-05-11 10:37:00,
2013-05-11 05:43:00,40.8,29.1,30.13,North,5,11.0,14.0,63,0.00,,,0.00,5.0,meteohub,2013-05-11 10:43:00,
2013-05-11 05:49:00,40.8,29.7,30.13,North,0,3.0,14.0,64,0.00,,,0.00,7.0,meteohub,2013-05-11 10:49:00,
2013-05-11 05:55:00,40.6,29.5,30.13,NNW,338,2.0,14.0,64,0.00,,,0.00,11.0,meteohub,2013-05-11 10:55:00,
2013-05-11 06:01:00,40.6,29.5,30.14,NNW,335,3.0,13.0,64,0.00,,,0.00,14.0,meteohub,2013-05-11 11:01:00,
2013-05-11 06:08:00,40.6,29.8,30.14,NNW,340,6.0,13.0,65,0.00,,,0.00,16.0,meteohub,2013-05-11 11:08:00,
2013-05-11 06:14:00,40.6,29.5,30.14,NNW,331,3.0,13.0,64,0.00,,,0.00,19.0,meteohub,2013-05-11 11:14:00,
2013-05-11 06:20:00,40.6,29.8,30.14,North,355,3.0,16.0,65,0.00,,,0.00,23.0,meteohub,2013-05-11 11:20:00,
2013-05-11 06:26:00,40.8,29.7,30.14,North,350,6.0,16.0,64,0.00,,,0.00,25.0,meteohub,2013-05-11 11:26:00,
2013-05-11 06:32:00,40.8,29.7,30.14,North,5,3.0,16.0,64,0.00,,,0.00,32.0,meteohub,2013-05-11 11:32:00,
2013-05-11 06:37:00,41.0,31.3,30.15,NNE,17,3.0,17.0,68,0.00,,,0.00,42.0,meteohub,2013-05-11 11:37:00,
2013-05-11 06:43:00,41.2,30.7,30.15,NNW,342,7.0,17.0,66,0.00,,,0.00,53.0,meteohub,2013-05-11 11:43:00,
2013-05-11 06:49:00,41.4,30.0,30.15,NNW,338,4.0,17.0,64,0.00,,,0.00,70.0,meteohub,2013-05-11 11:49:00,
2013-05-11 06:55:00,41.5,30.7,30.16,NNW,331,2.0,17.0,65,0.00,,,0.00,83.0,meteohub,2013-05-11 11:55:00,
2013-05-11 07:02:00,41.5,30.7,30.17,WNW,291,10.0,17.0,65,0.00,,,0.00,93.0,meteohub,2013-05-11 12:02:00,
2013-05-11 07:08:00,41.5,30.7,30.17,North,355,5.0,20.0,65,0.00,,,0.00,76.0,meteohub,2013-05-11 12:08:00,
2013-05-11 07:14:00,41.5,30.7,30.17,NNW,338,4.0,20.0,65,0.00,,,0.00,60.0,meteohub,2013-05-11 12:14:00,
2013-05-11 07:20:00,41.7,30.7,30.17,NNW,347,7.0,19.0,65,0.00,,,0.00,69.0,meteohub,2013-05-11 12:20:00,
2013-05-11 07:27:00,41.7,30.7,30.17,North,5,4.0,19.0,65,0.00,,,0.00,113.0,meteohub,2013-05-11 12:27:00,
2013-05-11 07:32:00,42.1,31.1,30.17,NE,34,4.0,17.0,65,0.00,,,0.00,162.0,meteohub,2013-05-11 12:32:00,
2013-05-11 07:37:00,42.3,30.6,30.17,NNW,348,7.0,17.0,63,0.00,,,0.00,137.0,meteohub,2013-05-11 12:37:00,
2013-05-11 07:43:00,42.1,30.4,30.17,NNW,348,7.0,17.0,63,0.00,,,0.00,149.0,meteohub,2013-05-11 12:43:00,
2013-05-11 07:49:00,42.3,30.6,30.17,North,349,4.0,22.0,63,0.00,,,0.00,246.0,meteohub,2013-05-11 12:49:00,
2013-05-11 07:56:00,42.6,30.6,30.17,WNW,297,5.0,22.0,62,0.00,,,0.00,330.0,meteohub,2013-05-11 12:56:00,
2013-05-11 08:02:00,43.0,30.9,30.17,NNW,339,7.0,15.0,62,0.00,,,0.00,338.0,meteohub,2013-05-11 13:02:00,
2013-05-11 08:08:00,43.3,31.3,30.17,WNW,295,12.0,15.0,62,0.00,,,0.00,369.0,meteohub,2013-05-11 13:08:00,
2013-05-11 08:14:00,43.5,30.6,30.17,North,355,10.0,15.0,60,0.00,,,0.00,410.0,meteohub,2013-05-11 13:14:00,
2013-05-11 08:20:00,43.3,30.4,30.17,NNW,344,5.0,18.0,60,0.00,,,0.00,185.0,meteohub,2013-05-11 13:20:00,
2013-05-11 08:27:00,43.3,30.0,30.17,West,270,5.0,18.0,59,0.00,,,0.00,232.0,meteohub,2013-05-11 13:27:00,
2013-05-11 08:32:00,43.5,30.6,30.17,North,5,3.0,18.0,60,0.00,,,0.00,185.0,meteohub,2013-05-11 13:32:00,
2013-05-11 08:37:00,44.1,30.7,30.17,NNE,30,6.0,18.0,59,0.00,,,0.00,218.0,meteohub,2013-05-11 13:37:00,
2013-05-11 08:43:00,43.9,30.9,30.17,WNW,288,9.0,20.0,60,0.00,,,0.00,279.0,meteohub,2013-05-11 13:43:00,
2013-05-11 08:49:00,43.9,30.6,30.17,NW,317,7.0,20.0,59,0.00,,,0.00,216.0,meteohub,2013-05-11 13:49:00,
2013-05-11 08:55:00,43.3,30.7,30.18,NNW,345,3.0,20.0,61,0.00,,,0.00,236.0,meteohub,2013-05-11 13:55:00,
2013-05-11 09:02:00,43.3,31.3,30.17,NNW,336,3.0,20.0,62,0.00,,,0.00,253.0,meteohub,2013-05-11 14:02:00,
2013-05-11 09:08:00,43.5,30.9,30.17,NW,318,15.0,20.0,61,0.00,,,0.00,257.0,meteohub,2013-05-11 14:08:00,
2013-05-11 09:14:00,44.1,31.5,30.17,ENE,60,2.0,18.0,61,0.00,,,0.00,353.0,meteohub,2013-05-11 14:14:00,
2013-05-11 09:20:00,44.8,31.8,30.18,NNE,17,3.0,18.0,60,0.00,,,0.00,253.0,meteohub,2013-05-11 14:20:00,
2013-05-11 09:26:00,45.0,31.5,30.18,North,355,3.0,16.0,59,0.00,,,0.00,271.0,meteohub,2013-05-11 14:26:00,
2013-05-11 09:32:00,44.2,31.3,30.18,NW,310,15.0,16.0,60,0.00,,,0.00,236.0,meteohub,2013-05-11 14:32:00,
2013-05-11 09:37:00,43.9,30.6,30.18,NNW,336,7.0,17.0,59,0.00,,,0.00,250.0,meteohub,2013-05-11 14:37:00,
2013-05-11 09:43:00,44.2,31.6,30.18,SW,236,6.0,17.0,61,0.00,,,0.00,232.0,meteohub,2013-05-11 14:43:00,
2013-05-11 09:49:00,44.4,31.5,30.18,West,259,9.0,17.0,60,0.00,,,0.00,202.0,meteohub,2013-05-11 14:49:00,
2013-05-11 09:55:00,43.9,30.9,30.18,NNW,331,3.0,20.0,60,0.00,,,0.00,232.0,meteohub,2013-05-11 14:55:00,
2013-05-11 10:01:00,44.1,31.5,30.18,NNW,328,12.0,21.0,61,0.00,,,0.00,765.0,meteohub,2013-05-11 15:01:00,
2013-05-11 10:08:00,45.3,30.9,30.17,NW,317,5.0,21.0,57,0.00,,,0.00,768.0,meteohub,2013-05-11 15:08:00,
2013-05-11 10:14:00,46.2,30.9,30.17,NW,325,2.0,19.0,55,0.00,,,0.00,810.0,meteohub,2013-05-11 15:14:00,
2013-05-11 10:20:00,46.9,30.7,30.17,NNW,346,9.0,19.0,53,0.00,,,0.00,937.0,meteohub,2013-05-11 15:20:00,
2013-05-11 10:26:00,46.8,28.6,30.17,North,355,9.0,19.0,49,0.00,,,0.00,288.0,meteohub,2013-05-11 15:26:00,
2013-05-11 10:32:00,46.6,28.4,30.18,North,0,6.0,19.0,49,0.00,,,0.00,329.0,meteohub,2013-05-11 15:32:00,
2013-05-11 10:38:00,47.1,29.5,30.17,North,11,10.0,19.0,50,0.00,,,0.00,315.0,meteohub,2013-05-11 15:38:00,
2013-05-11 10:45:00,47.8,30.0,30.17,North,355,21.0,21.0,50,0.00,,,0.00,1049.0,meteohub,2013-05-11 15:45:00,
2013-05-11 10:51:00,47.5,30.7,30.17,North,5,1.0,19.0,52,0.00,,,0.00,186.0,meteohub,2013-05-11 15:51:00,
2013-05-11 10:57:00,46.6,29.5,30.18,NNW,342,3.0,23.0,51,0.00,,,0.00,230.0,meteohub,2013-05-11 15:57:00,
2013-05-11 11:03:00,46.6,30.4,30.17,NNW,346,5.0,23.0,53,0.00,,,0.00,206.0,meteohub,2013-05-11 16:03:00,
2013-05-11 11:09:00,47.7,31.8,30.17,NNW,331,12.0,17.0,54,0.00,,,0.00,932.0,meteohub,2013-05-11 16:09:00,
2013-05-11 11:15:00,48.0,29.3,30.17,NNE,18,5.0,15.0,48,0.00,,,0.00,1151.0,meteohub,2013-05-11 16:15:00,
2013-05-11 11:22:00,47.8,29.1,30.17,NNW,333,3.0,15.0,48,0.00,,,0.00,323.0,meteohub,2013-05-11 16:22:00,
2013-05-11 11:28:00,47.7,29.5,30.17,North,0,4.0,19.0,49,0.00,,,0.00,1095.0,meteohub,2013-05-11 16:28:00,
2013-05-11 11:34:00,48.6,29.3,30.16,NNE,23,9.0,20.0,47,0.00,,,0.00,1085.0,meteohub,2013-05-11 16:34:00,
2013-05-11 11:40:00,48.4,28.0,30.17,NW,316,3.0,20.0,45,0.00,,,0.00,334.0,meteohub,2013-05-11 16:40:00,
2013-05-11 11:46:00,47.8,29.7,30.17,NE,35,3.0,18.0,49,0.00,,,0.00,167.0,meteohub,2013-05-11 16:46:00,
2013-05-11 11:52:00,47.7,28.4,30.16,NW,321,4.0,18.0,47,0.00,,,0.00,167.0,meteohub,2013-05-11 16:52:00,
2013-05-11 11:59:00,48.6,28.2,30.17,North,0,7.0,16.0,45,0.00,,,0.00,1013.0,meteohub,2013-05-11 16:59:00,
2013-05-11 12:05:00,48.7,28.9,30.17,North,5,6.0,16.0,46,0.00,,,0.00,1013.0,meteohub,2013-05-11 17:05:00,
2013-05-11 12:11:00,48.7,29.8,30.17,NNW,336,10.0,19.0,48,0.00,,,0.00,197.0,meteohub,2013-05-11 17:11:00,
2013-05-11 12:17:00,48.7,29.8,30.17,NNE,22,7.0,19.0,48,0.00,,,0.00,1118.0,meteohub,2013-05-11 17:17:00,
2013-05-11 12:23:00,48.0,26.1,30.17,NW,314,6.0,19.0,42,0.00,,,0.00,1188.0,meteohub,2013-05-11 17:23:00,
2013-05-11 12:29:00,48.7,24.8,30.17,NW,323,6.0,23.0,39,0.00,,,0.00,1011.0,meteohub,2013-05-11 17:29:00,
2013-05-11 12:36:00,50.0,22.1,30.16,NNE,27,12.0,23.0,33,0.00,,,0.00,1074.0,meteohub,2013-05-11 17:36:00,
2013-05-11 12:42:00,50.2,22.1,30.17,SSW,210,5.0,23.0,33,0.00,,,0.00,1095.0,meteohub,2013-05-11 17:42:00,
2013-05-11 12:48:00,50.4,23.0,30.17,WNW,299,4.0,23.0,34,0.00,,,0.00,1083.0,meteohub,2013-05-11 17:48:00,
2013-05-11 12:54:00,50.2,24.3,30.17,West,275,4.0,23.0,36,0.00,,,0.00,1120.0,meteohub,2013-05-11 17:54:00,
2013-05-11 13:00:00,49.5,24.3,30.17,WSW,258,10.0,18.0,37,0.00,,,0.00,287.0,meteohub,2013-05-11 18:00:00,
2013-05-11 13:07:00,49.3,24.1,30.17,NNE,24,4.0,18.0,37,0.00,,,0.00,218.0,meteohub,2013-05-11 18:07:00,
2013-05-11 13:13:00,49.8,23.9,30.17,North,355,5.0,20.0,36,0.00,,,0.00,1155.0,meteohub,2013-05-11 18:13:00,
2013-05-11 13:19:00,50.2,23.5,30.17,East,96,3.0,24.0,35,0.00,,,0.00,1005.0,meteohub,2013-05-11 18:19:00,
2013-05-11 13:25:00,50.7,24.1,30.17,West,262,11.0,24.0,35,0.00,,,0.00,1195.0,meteohub,2013-05-11 18:25:00,
2013-05-11 13:31:00,50.2,24.3,30.17,NNE,33,3.0,24.0,36,0.00,,,0.00,232.0,meteohub,2013-05-11 18:31:00,
2013-05-11 13:38:00,50.5,25.9,30.18,North,0,3.0,17.0,38,0.00,,,0.00,1139.0,meteohub,2013-05-11 18:38:00,
2013-05-11 13:44:00,50.4,25.7,30.18,WSW,250,4.0,17.0,38,0.00,,,0.00,1174.0,meteohub,2013-05-11 18:44:00,
2013-05-11 13:50:00,49.8,25.9,30.18,North,0,4.0,17.0,39,0.00,,,0.00,322.0,meteohub,2013-05-11 18:50:00,
2013-05-11 13:56:00,49.5,27.9,30.18,NNW,327,3.0,18.0,43,0.00,,,0.00,1248.0,meteohub,2013-05-11 18:56:00,
2013-05-11 14:02:00,49.6,25.7,30.19,North,355,6.0,18.0,39,0.00,,,0.00,281.0,meteohub,2013-05-11 19:02:00,
2013-05-11 14:08:00,49.5,24.3,30.18,NE,53,7.0,21.0,37,0.00,,,0.00,1209.0,meteohub,2013-05-11 19:08:00,
2013-05-11 14:15:00,50.5,25.2,30.19,NNW,337,9.0,21.0,37,0.00,,,0.00,1130.0,meteohub,2013-05-11 19:15:00,
2013-05-11 14:21:00,51.3,27.1,30.18,South,188,1.0,21.0,39,0.00,,,0.00,1218.0,meteohub,2013-05-11 19:21:00,
2013-05-11 14:27:00,50.7,24.8,30.19,West,279,9.0,17.0,36,0.00,,,0.00,1188.0,meteohub,2013-05-11 19:27:00,
2013-05-11 14:33:00,51.3,25.2,30.19,North,355,13.0,17.0,36,0.00,,,0.00,1102.0,meteohub,2013-05-11 19:33:00,
2013-05-11 14:39:00,49.6,25.0,30.19,NW,304,2.0,19.0,38,0.00,,,0.00,1102.0,meteohub,2013-05-11 19:39:00,
2013-05-11 14:45:00,49.6,25.0,30.19,North,0,6.0,24.0,38,0.00,,,0.00,318.0,meteohub,2013-05-11 19:45:00,
2013-05-11 14:51:00,49.5,25.5,30.20,WNW,299,7.0,24.0,39,0.00,,,0.00,309.0,meteohub,2013-05-11 19:51:00,
2013-05-11 14:58:00,48.7,25.5,30.20,NNW,336,4.0,23.0,40,0.00,,,0.00,1141.0,meteohub,2013-05-11 19:58:00,
2013-05-11 15:04:00,49.1,26.4,30.20,NW,315,8.0,23.0,41,0.00,,,0.00,1062.0,meteohub,2013-05-11 20:04:00,
2013-05-11 15:10:00,49.5,25.5,30.20,North,5,4.0,23.0,39,0.00,,,0.00,292.0,meteohub,2013-05-11 20:10:00,
2013-05-11 15:16:00,48.4,25.2,30.20,North,5,4.0,19.0,40,0.00,,,0.00,345.0,meteohub,2013-05-11 20:16:00,
2013-05-11 15:22:00,48.6,24.8,30.20,NNE,20,7.0,19.0,39,0.00,,,0.00,958.0,meteohub,2013-05-11 20:22:00,
2013-05-11 15:28:00,48.4,25.2,30.20,NNW,343,13.0,25.0,40,0.00,,,0.00,965.0,meteohub,2013-05-11 20:28:00,
2013-05-11 15:35:00,48.7,25.5,30.20,NE,45,7.0,22.0,40,0.00,,,0.00,385.0,meteohub,2013-05-11 20:35:00,
2013-05-11 15:41:00,48.0,24.8,30.20,NNW,329,7.0,22.0,40,0.00,,,0.00,251.0,meteohub,2013-05-11 20:41:00,
2013-05-11 15:47:00,48.2,26.2,30.20,North,355,21.0,21.0,42,0.00,,,0.00,301.0,meteohub,2013-05-11 20:47:00,
2013-05-11 15:53:00,48.0,24.8,30.20,North,0,2.0,18.0,40,0.00,,,0.00,251.0,meteohub,2013-05-11 20:53:00,
2013-05-11 15:59:00,48.6,26.4,30.20,North,355,2.0,22.0,42,0.00,,,0.00,918.0,meteohub,2013-05-11 20:59:00,
2013-05-11 16:05:00,49.3,25.3,30.20,North,349,7.0,20.0,39,0.00,,,0.00,960.0,meteohub,2013-05-11 21:05:00,
2013-05-11 16:12:00,49.3,25.3,30.20,North,5,8.0,20.0,39,0.00,,,0.00,420.0,meteohub,2013-05-11 21:12:00,
2013-05-11 16:18:00,48.9,25.7,30.20,North,10,12.0,18.0,40,0.00,,,0.00,886.0,meteohub,2013-05-11 21:18:00,
2013-05-11 16:24:00,49.3,25.3,30.19,NNW,328,5.0,20.0,39,0.00,,,0.00,793.0,meteohub,2013-05-11 21:24:00,
2013-05-11 16:30:00,49.6,25.7,30.19,NW,314,11.0,20.0,39,0.00,,,0.00,860.0,meteohub,2013-05-11 21:30:00,
2013-05-11 16:36:00,50.4,25.0,30.19,North,5,12.0,21.0,37,0.00,,,0.00,747.0,meteohub,2013-05-11 21:36:00,
2013-05-11 16:42:00,49.5,25.0,30.20,NW,317,10.0,21.0,38,0.00,,,0.00,207.0,meteohub,2013-05-11 21:42:00,
2013-05-11 16:49:00,49.3,25.3,30.20,NE,54,15.0,21.0,39,0.00,,,0.00,172.0,meteohub,2013-05-11 21:49:00,
2013-05-11 16:55:00,48.9,25.7,30.20,West,267,11.0,21.0,40,0.00,,,0.00,714.0,meteohub,2013-05-11 21:55:00,
2013-05-11 17:01:00,49.6,25.7,30.20,NNW,338,8.0,21.0,39,0.00,,,0.00,701.0,meteohub,2013-05-11 22:01:00,
2013-05-11 17:07:00,49.5,24.3,30.20,NE,34,11.0,19.0,37,0.00,,,0.00,243.0,meteohub,2013-05-11 22:07:00,
2013-05-11 17:13:00,48.9,25.0,30.20,NNW,347,8.0,19.0,39,0.00,,,0.00,149.0,meteohub,2013-05-11 22:13:00,
2013-05-11 17:19:00,49.1,24.6,30.20,North,5,4.0,22.0,38,0.00,,,0.00,148.0,meteohub,2013-05-11 22:19:00,
2013-05-11 17:26:00,49.8,25.2,30.20,NW,320,12.0,19.0,38,0.00,,,0.00,677.0,meteohub,2013-05-11 22:26:00,
2013-05-11 17:32:00,50.2,24.3,30.20,NNW,336,7.0,19.0,36,0.00,,,0.00,178.0,meteohub,2013-05-11 22:32:00,
2013-05-11 17:38:00,50.2,25.0,30.20,NNE,25,4.0,17.0,37,0.00,,,0.00,563.0,meteohub,2013-05-11 22:38:00,
2013-05-11 17:44:00,50.9,26.2,30.20,North,350,3.0,19.0,38,0.00,,,0.00,559.0,meteohub,2013-05-11 22:44:00,
2013-05-11 17:50:00,51.1,26.4,30.20,NNE,21,2.0,19.0,38,0.00,,,0.00,559.0,meteohub,2013-05-11 22:50:00,
2013-05-11 17:56:00,50.2,25.0,30.20,North,5,2.0,17.0,37,0.00,,,0.00,513.0,meteohub,2013-05-11 22:56:00,
2013-05-11 18:02:00,49.8,25.9,30.20,NNW,334,4.0,17.0,39,0.00,,,0.00,480.0,meteohub,2013-05-11 23:02:00,
2013-05-11 18:07:00,49.8,24.6,30.20,WNW,300,5.0,16.0,37,0.00,,,0.00,111.0,meteohub,2013-05-11 23:07:00,
2013-05-11 18:13:00,49.8,24.6,30.20,NNE,24,7.0,16.0,37,0.00,,,0.00,410.0,meteohub,2013-05-11 23:13:00,
2013-05-11 18:19:00,49.8,24.6,30.21,NW,311,5.0,18.0,37,0.00,,,0.00,408.0,meteohub,2013-05-11 23:19:00,
2013-05-11 18:25:00,49.8,24.6,30.20,NNE,19,13.0,18.0,37,0.00,,,0.00,387.0,meteohub,2013-05-11 23:25:00,
2013-05-11 18:31:00,50.2,25.5,30.20,NW,313,2.0,21.0,38,0.00,,,0.00,381.0,meteohub,2013-05-11 23:31:00,
2013-05-11 18:38:00,50.2,25.0,30.21,NNW,331,4.0,21.0,37,0.00,,,0.00,292.0,meteohub,2013-05-11 23:38:00,
2013-05-11 18:44:00,49.6,25.0,30.21,North,5,7.0,21.0,38,0.00,,,0.00,278.0,meteohub,2013-05-11 23:44:00,
2013-05-11 18:50:00,49.1,24.6,30.21,NNW,336,6.0,21.0,38,0.00,,,0.00,79.0,meteohub,2013-05-11 23:50:00,
2013-05-11 18:56:00,48.7,25.5,30.21,North,355,4.0,13.0,40,0.00,,,0.00,81.0,meteohub,2013-05-11 23:56:00,
2013-05-11 19:02:00,48.6,24.8,30.21,NE,36,3.0,13.0,39,0.00,,,0.00,77.0,meteohub,2013-05-12 00:02:00,
2013-05-11 19:07:00,48.4,24.6,30.21,North,0,4.0,13.0,39,0.00,,,0.00,56.0,meteohub,2013-05-12 00:07:00,
2013-05-11 19:13:00,48.2,25.0,30.22,North,355,5.0,22.0,40,0.00,,,0.00,51.0,meteohub,2013-05-12 00:13:00,
2013-05-11 19:19:00,48.0,24.8,30.22,NNW,343,9.0,22.0,40,0.00,,,0.00,69.0,meteohub,2013-05-12 00:19:00,
2013-05-11 19:25:00,48.4,24.6,30.21,East,86,3.0,18.0,39,0.00,,,0.00,63.0,meteohub,2013-05-12 00:25:00,
2013-05-11 19:31:00,48.4,25.2,30.22,North,0,4.0,18.0,40,0.00,,,0.00,54.0,meteohub,2013-05-12 00:31:00,
2013-05-11 19:37:00,48.0,24.8,30.22,North,355,13.0,18.0,40,0.00,,,0.00,39.0,meteohub,2013-05-12 00:37:00,
2013-05-11 19:44:00,47.8,24.6,30.22,NNW,347,5.0,18.0,40,0.00,,,0.00,39.0,meteohub,2013-05-12 00:44:00,
2013-05-11 19:50:00,47.7,24.4,30.22,NNE,24,4.0,14.0,40,0.00,,,0.00,35.0,meteohub,2013-05-12 00:50:00,
2013-05-11 19:56:00,47.5,24.4,30.23,North,349,5.0,14.0,40,0.00,,,0.00,30.0,meteohub,2013-05-12 00:56:00,
2013-05-11 20:02:00,47.3,24.8,30.23,NNE,21,4.0,14.0,41,0.00,,,0.00,28.0,meteohub,2013-05-12 01:02:00,
2013-05-11 20:08:00,47.1,25.2,30.23,North,355,10.0,16.0,42,0.00,,,0.00,19.0,meteohub,2013-05-12 01:08:00,
2013-05-11 20:14:00,46.8,24.8,30.23,North,0,4.0,16.0,42,0.00,,,0.00,14.0,meteohub,2013-05-12 01:14:00,
2013-05-11 20:21:00,46.2,25.5,30.24,North,355,5.0,16.0,44,0.00,,,0.00,11.0,meteohub,2013-05-12 01:21:00,
2013-05-11 20:27:00,46.0,25.3,30.24,NE,38,3.0,17.0,44,0.00,,,0.00,9.0,meteohub,2013-05-12 01:27:00,
2013-05-11 20:33:00,45.7,25.0,30.24,North,9,8.0,17.0,44,0.00,,,0.00,5.0,meteohub,2013-05-12 01:33:00,
2013-05-11 20:39:00,45.5,25.3,30.24,NNW,341,6.0,16.0,45,0.00,,,0.00,0.0,meteohub,2013-05-12 01:39:00,
2013-05-11 20:45:00,45.3,25.2,30.25,NNW,348,7.0,15.0,45,0.00,,,0.00,0.0,meteohub,2013-05-12 01:45:00,
2013-05-11 20:51:00,45.1,26.1,30.25,North,5,2.0,15.0,47,0.00,,,0.00,0.0,meteohub,2013-05-12 01:51:00,
2013-05-11 20:57:00,44.6,26.1,30.25,NNW,340,6.0,15.0,48,0.00,,,0.00,0.0,meteohub,2013-05-12 01:57:00,
2013-05-11 21:04:00,44.4,25.5,30.26,NNE,15,4.0,15.0,47,0.00,,,0.00,0.0,meteohub,2013-05-12 02:04:00,
2013-05-11 21:10:00,44.4,25.5,30.26,North,10,10.0,12.0,47,0.00,,,0.00,0.0,meteohub,2013-05-12 02:10:00,
2013-05-11 21:16:00,44.2,25.3,30.26,NNW,346,3.0,12.0,47,0.00,,,0.00,0.0,meteohub,2013-05-12 02:16:00,
2013-05-11 21:22:00,44.2,24.8,30.26,NNW,332,5.0,12.0,46,0.00,,,0.00,0.0,meteohub,2013-05-12 02:22:00,
2013-05-11 21:28:00,43.9,25.0,30.27,NNW,344,5.0,12.0,47,0.00,,,0.00,0.0,meteohub,2013-05-12 02:28:00,
2013-05-11 21:34:00,43.7,24.8,30.27,NNW,333,2.0,9.0,47,0.00,,,0.00,0.0,meteohub,2013-05-12 02:34:00,
2013-05-11 21:41:00,43.5,25.2,30.27,NNE,28,2.0,9.0,48,0.00,,,0.00,0.0,meteohub,2013-05-12 02:41:00,
2013-05-11 21:47:00,43.3,25.0,30.27,NE,44,3.0,8.0,48,0.00,,,0.00,0.0,meteohub,2013-05-12 02:47:00,
2013-05-11 21:53:00,43.3,25.0,30.27,NNW,331,2.0,8.0,48,0.00,,,0.00,0.0,meteohub,2013-05-12 02:53:00,
2013-05-11 21:59:00,43.2,25.3,30.27,NNE,27,2.0,11.0,49,0.00,,,0.00,0.0,meteohub,2013-05-12 02:59:00,
2013-05-11 22:05:00,43.0,25.2,30.27,North,355,5.0,7.0,49,0.00,,,0.00,0.0,meteohub,2013-05-12 03:05:00,
2013-05-11 22:11:00,42.8,25.0,30.27,North,355,1.0,7.0,49,0.00,,,0.00,0.0,meteohub,2013-05-12 03:11:00,
2013-05-11 22:17:00,42.6,24.8,30.27,NW,316,2.0,7.0,49,0.00,,,0.00,0.0,meteohub,2013-05-12 03:17:00,
2013-05-11 22:22:00,42.4,25.2,30.28,North,9,1.0,7.0,50,0.00,,,0.00,0.0,meteohub,2013-05-12 03:22:00,
2013-05-11 22:28:00,42.3,25.0,30.28,NNW,336,1.0,6.0,50,0.00,,,0.00,0.0,meteohub,2013-05-12 03:28:00,
2013-05-11 22:34:00,42.1,24.8,30.28,North,5,0.0,6.0,50,0.00,,,0.00,0.0,meteohub,2013-05-12 03:34:00,
2013-05-11 22:40:00,42.1,24.8,30.28,North,355,2.0,8.0,50,0.00,,,0.00,0.0,meteohub,2013-05-12 03:40:00,
2013-05-11 22:46:00,41.9,25.2,30.28,North,355,2.0,8.0,51,0.00,,,0.00,0.0,meteohub,2013-05-12 03:46:00,
2013-05-11 22:53:00,41.9,25.2,30.28,NNW,346,1.0,8.0,51,0.00,,,0.00,0.0,meteohub,2013-05-12 03:53:00,
2013-05-11 22:59:00,41.5,24.8,30.28,NNE,14,2.0,8.0,51,0.00,,,0.00,0.0,meteohub,2013-05-12 03:59:00,
2013-05-11 23:01:00,41.5,25.2,30.28,NNW,344,5.0,8.0,52,0.00,,,0.00,0.0,meteohub,2013-05-12 04:01:00,
2013-05-11 23:02:00,41.5,24.8,30.28,NNW,340,3.0,8.0,51,0.00,,,0.00,0.0,meteohub,2013-05-12 04:02:00,
2013-05-11 23:07:00,41.4,25.0,30.28,NNW,335,2.0,7.0,52,0.00,,,0.00,0.0,meteohub,2013-05-12 04:07:00,
2013-05-11 23:09:00,41.4,25.5,30.28,NE,40,1.0,7.0,53,0.00,,,0.00,0.0,meteohub,2013-05-12 04:09:00,
2013-05-11 23:15:00,41.2,24.8,30.28,NNW,348,3.0,5.0,52,0.00,,,0.00,0.0,meteohub,2013-05-12 04:15:00,
2013-05-11 23:21:00,41.2,25.3,30.28,NNW,344,2.0,5.0,53,0.00,,,0.00,0.0,meteohub,2013-05-12 04:21:00,
2013-05-11 23:25:00,41.0,24.8,30.29,ENE,75,2.0,5.0,52,0.00,,,0.00,0.0,meteohub,2013-05-12 04:25:00,
2013-05-11 23:32:00,41.0,24.8,30.28,NNW,342,2.0,5.0,52,0.00,,,0.00,0.0,meteohub,2013-05-12 04:32:00,
2013-05-11 23:38:00,40.8,25.0,30.29,North,10,1.0,6.0,53,0.00,,,0.00,0.0,meteohub,2013-05-12 04:38:00,
2013-05-11 23:44:00,40.6,24.8,30.29,NNW,348,0.0,6.0,53,0.00,,,0.00,0.0,meteohub,2013-05-12 04:44:00,
2013-05-11 23:50:00,40.6,24.8,30.29,North,355,2.0,6.0,53,0.00,,,0.00,0.0,meteohub,2013-05-12 04:50:00,
2013-05-11 23:56:00,40.5,25.2,30.29,North,0,1.0,6.0,54,0.00,,,0.00,0.0,meteohub,2013-05-12 04:56:00,